Dublin, GA

4:58 AM EDT on August 21, 2017 (GMT -0400)
Dublin

Weather History for KDBN - March, 2013

Change the Weather History Date:

Wednesday, March 6, 2013

  Actual Average Record
Temperature  
Mean Temperature 42 °F -  
Max Temperature 50 °F 70 °F 89 °F (1961)
Min Temperature 35 °F 43 °F 19 °F (1960)
Degree Days  
Heating Degree Days 22    
Moisture  
Dew Point 25 °F    
Average Humidity 53    
Maximum Humidity 75    
Minimum Humidity 35    
Precipitation  
Precipitation 0.00 in - - ()
Sea Level Pressure  
Sea Level Pressure 30.06 in    
Wind  
Wind Speed 13 mph (NW)    
Max Wind Speed 23 mph    
Max Gust Speed 32 mph    
Visibility 10 miles    
Events      
Averages and records for this station are not official NWS values.
T = Trace of Precipitation, MM = Missing Value Source: NWS Daily Summary

Daily Weather History Graph

Daily Weather History Graph

Search for Another Location

Airport or City:

Trip Planner

Search our weather history database for the weather conditions in past years. The results will help you decide how hot, cold, wet, or windy it might be!

Date:

Astronomy

Mar. 06, 2013 Rise Set
Actual Time 6:53 AM EST 6:32 PM EST
Civil Twilight 6:28 AM EST 6:57 PM EST
Nautical Twilight 6:00 AM EST 7:26 PM EST
Astronomical Twilight 5:31 AM EST 7:55 PM EST
Moon 2:49 AM EST (3/6) 1:25 PM EST (3/6)
Length of Visible Light 12h 28m
Length of Day
11h 39m
Waning Crescent, 30% of the Moon is Illuminated
Mar 6
Waning Crescent
Mar 11
New
Mar 19
First Quarter
Mar 27
Full
Apr 3
Last Quarter

Hourly Weather History & Observations

Time (EST) Temp. Windchill Dew Point Humidity Pressure Visibility Wind Dir Wind Speed Gust Speed Precip Events Conditions
12:15 AM 44.6 °F 37.8 °F 32.0 °F 61% 29.95 in 10.0 mi NW 15.0 mph 24.2 mph N/A   Scattered Clouds
12:35 AM 42.8 °F 34.5 °F 30.2 °F 61% 29.96 in 10.0 mi WNW 18.4 mph 29.9 mph N/A   Clear
12:55 AM 42.8 °F 37.0 °F 32.0 °F 66% 29.96 in 10.0 mi NW 10.4 mph 20.7 mph N/A   Mostly Cloudy
1:15 AM 42.8 °F 36.2 °F 30.2 °F 61% 29.96 in 10.0 mi NW 12.7 mph 23.0 mph N/A   Scattered Clouds
1:35 AM 42.8 °F 35.8 °F 28.4 °F 57% 29.96 in 10.0 mi WNW 13.8 mph 20.7 mph N/A   Clear
1:55 AM 41.0 °F 34.7 °F 28.4 °F 61% 29.96 in 10.0 mi WNW 10.4 mph 18.4 mph N/A   Clear
2:15 AM 41.0 °F 35.8 °F 28.4 °F 61% 29.96 in 10.0 mi West 8.1 mph - N/A   Clear
2:35 AM 41.0 °F 35.2 °F 28.4 °F 61% 29.96 in 10.0 mi West 9.2 mph - N/A   Clear
2:55 AM 41.0 °F 34.7 °F 28.4 °F 61% 29.96 in 10.0 mi West 10.4 mph 17.3 mph N/A   Clear
3:15 AM 41.0 °F 34.3 °F 28.4 °F 61% 29.96 in 10.0 mi West 11.5 mph 16.1 mph N/A   Clear
3:35 AM 39.2 °F 32.0 °F 30.2 °F 70% 29.95 in 10.0 mi West 11.5 mph 16.1 mph N/A   Clear
3:55 AM 39.2 °F 32.0 °F 30.2 °F 70% 29.95 in 10.0 mi West 11.5 mph 17.3 mph N/A   Clear
4:15 AM 39.2 °F 32.0 °F 30.2 °F 70% 29.95 in 10.0 mi West 11.5 mph 16.1 mph N/A   Clear
4:35 AM 39.2 °F 32.5 °F 30.2 °F 70% 29.95 in 10.0 mi West 10.4 mph 17.3 mph N/A   Clear
4:55 AM 39.2 °F 31.2 °F 30.2 °F 70% 29.95 in 10.0 mi West 13.8 mph 17.3 mph N/A   Clear
5:15 AM 39.2 °F 31.6 °F 30.2 °F 70% 29.96 in 10.0 mi West 12.7 mph - N/A   Scattered Clouds
5:35 AM 39.2 °F 31.2 °F 30.2 °F 70% 29.96 in 10.0 mi WNW 13.8 mph 24.2 mph N/A   Mostly Cloudy
5:55 AM 41.0 °F 33.9 °F 28.4 °F 61% 29.98 in 10.0 mi WNW 12.7 mph 19.6 mph N/A   Overcast
6:55 AM 37.4 °F 29.3 °F 14.0 °F 38% 30.01 in 10.0 mi NW 12.7 mph 24.2 mph N/A   Clear
7:15 AM 35.6 °F 28.6 °F 17.6 °F 48% 30.01 in 10.0 mi WNW 9.2 mph - N/A   Clear
7:35 AM 37.4 °F 28.5 °F 17.6 °F 45% 30.03 in 10.0 mi NW 15.0 mph 20.7 mph N/A   Clear
7:55 AM 37.4 °F 30.3 °F 17.6 °F 45% 30.05 in 10.0 mi NW 10.4 mph 16.1 mph N/A   Clear
8:15 AM 37.4 °F 27.8 °F 17.6 °F 45% 30.06 in 10.0 mi NW 17.3 mph 25.3 mph N/A   Clear
8:35 AM 37.4 °F 28.5 °F 17.6 °F 45% 30.07 in 10.0 mi NW 15.0 mph 26.5 mph N/A   Clear
8:55 AM 41.0 °F 32.5 °F 19.4 °F 42% 30.08 in 10.0 mi NW 17.3 mph 26.5 mph N/A   Scattered Clouds
9:15 AM 41.0 °F 31.4 °F 19.4 °F 42% 30.08 in 10.0 mi NNW 21.9 mph 28.8 mph N/A   Scattered Clouds
9:35 AM 41.0 °F 31.9 °F 19.4 °F 42% 30.09 in 10.0 mi NW 19.6 mph 29.9 mph N/A   Mostly Cloudy
9:55 AM 41.0 °F 33.1 °F 19.4 °F 42% 30.09 in 10.0 mi NW 15.0 mph 23.0 mph N/A   Overcast
10:15 AM 42.8 °F 35.1 °F 21.2 °F 42% 30.09 in 10.0 mi NNW 16.1 mph 27.6 mph N/A   Mostly Cloudy
10:35 AM 42.8 °F 34.5 °F 21.2 °F 42% 30.09 in 10.0 mi NNW 18.4 mph 27.6 mph N/A   Scattered Clouds
10:55 AM 42.8 °F 34.5 °F 21.2 °F 42% 30.09 in 10.0 mi NW 18.4 mph 24.2 mph N/A   Mostly Cloudy
11:15 AM 42.8 °F 35.8 °F 21.2 °F 42% 30.10 in 10.0 mi NW 13.8 mph 23.0 mph N/A   Overcast
11:35 AM 44.6 °F 36.6 °F 21.2 °F 39% 30.09 in 10.0 mi NNW 19.6 mph 28.8 mph N/A   Overcast
11:55 AM 44.6 °F 38.4 °F 21.2 °F 39% 30.10 in 10.0 mi NW 12.7 mph 31.1 mph N/A   Overcast
12:15 PM 44.6 °F 38.4 °F 21.2 °F 39% 30.09 in 10.0 mi NW 12.7 mph 29.9 mph N/A   Mostly Cloudy
12:35 PM 46.4 °F 39.8 °F 23.0 °F 40% 30.08 in 10.0 mi NW 16.1 mph 27.6 mph N/A   Scattered Clouds
12:55 PM 46.4 °F 39.0 °F 21.2 °F 37% 30.08 in 10.0 mi NNW 19.6 mph 29.9 mph N/A   Scattered Clouds
1:15 PM 48.2 °F - 23.0 °F 37% 30.07 in 10.0 mi NW 23.0 mph 27.6 mph N/A   Mostly Cloudy
1:35 PM 46.4 °F 39.8 °F 23.0 °F 40% 30.07 in 10.0 mi NW 16.1 mph 27.6 mph N/A   Mostly Cloudy
1:55 PM 48.2 °F - 23.0 °F 37% 30.06 in 10.0 mi NNW 13.8 mph 26.5 mph N/A   Mostly Cloudy
2:15 PM 48.2 °F - 23.0 °F 37% 30.05 in 10.0 mi NW 17.3 mph 25.3 mph N/A   Scattered Clouds
2:35 PM 50.0 °F - 23.0 °F 35% 30.05 in 10.0 mi NW 13.8 mph 27.6 mph N/A   Clear
2:55 PM 50.0 °F - 24.8 °F 37% 30.06 in 10.0 mi NNW 19.6 mph 27.6 mph N/A   Clear
3:15 PM 50.0 °F - 24.8 °F 37% 30.06 in 10.0 mi NW 16.1 mph 31.1 mph N/A   Clear
3:35 PM 50.0 °F - 24.8 °F 37% 30.06 in 10.0 mi NW 17.3 mph 29.9 mph N/A   Clear
3:55 PM 50.0 °F - 23.0 °F 35% 30.06 in 10.0 mi NNW 15.0 mph 29.9 mph N/A   Clear
4:15 PM 50.0 °F - 24.8 °F 37% 30.07 in 10.0 mi NNW 18.4 mph 28.8 mph N/A   Clear
4:35 PM 50.0 °F - 26.6 °F 40% 30.07 in 10.0 mi NNW 17.3 mph 26.5 mph N/A   Clear
4:55 PM 48.2 °F - 24.8 °F 40% 30.07 in 10.0 mi NNW 21.9 mph 32.2 mph N/A   Clear
5:15 PM 46.4 °F 38.7 °F 24.8 °F 43% 30.08 in 10.0 mi NW 20.7 mph 27.6 mph N/A   Clear
5:35 PM 46.4 °F 40.7 °F 24.8 °F 43% 30.09 in 10.0 mi NW 12.7 mph 23.0 mph N/A   Clear
5:55 PM 46.4 °F 40.7 °F 26.6 °F 46% 30.09 in 10.0 mi NNW 12.7 mph 26.5 mph N/A   Clear
6:15 PM 44.6 °F 38.4 °F 26.6 °F 49% 30.11 in 10.0 mi NNW 12.7 mph 19.6 mph N/A   Clear
6:35 PM 44.6 °F 37.8 °F 26.6 °F 49% 30.12 in 10.0 mi NNW 15.0 mph 25.3 mph N/A   Clear
6:55 PM 42.8 °F 37.5 °F 26.6 °F 53% 30.12 in 10.0 mi NNW 9.2 mph 20.7 mph N/A   Clear
7:15 PM 42.8 °F 36.6 °F 26.6 °F 53% 30.14 in 10.0 mi NNW 11.5 mph 16.1 mph N/A   Clear
7:35 PM 42.8 °F 38.6 °F 26.6 °F 53% 30.14 in 10.0 mi North 6.9 mph 18.4 mph N/A   Clear
7:55 PM 42.8 °F 37.5 °F 28.4 °F 57% 30.14 in 10.0 mi NNW 9.2 mph - N/A   Clear
8:15 PM 41.0 °F 38.0 °F 28.4 °F 61% 30.15 in 10.0 mi North 4.6 mph - N/A   Clear
8:35 PM 41.0 °F 37.1 °F 28.4 °F 61% 30.15 in 10.0 mi NNW 5.8 mph - N/A   Clear
8:55 PM 39.2 °F - 28.4 °F 65% 30.15 in 10.0 mi Calm Calm - N/A   Clear
9:15 PM 37.4 °F - 28.4 °F 70% 30.16 in 10.0 mi Calm Calm - N/A   Clear
9:35 PM 37.4 °F 33.8 °F 28.4 °F 70% 30.16 in 10.0 mi WNW 4.6 mph - N/A   Clear
9:55 PM 37.4 °F 32.8 °F 28.4 °F 70% 30.17 in 10.0 mi NW 5.8 mph - N/A   Clear
10:15 PM 37.4 °F 33.8 °F 28.4 °F 70% 30.16 in 10.0 mi North 4.6 mph - N/A   Clear
10:35 PM 37.4 °F 34.9 °F 28.4 °F 70% 30.17 in 10.0 mi North 3.5 mph - N/A   Clear
10:55 PM 37.4 °F 32.1 °F 28.4 °F 70% 30.18 in 10.0 mi NW 6.9 mph - N/A   Clear
11:15 PM 37.4 °F 32.1 °F 28.4 °F 70% 30.19 in 10.0 mi NW 6.9 mph - N/A   Clear
11:35 PM 37.4 °F 32.8 °F 28.4 °F 70% 30.18 in 10.0 mi NNW 5.8 mph - N/A   Clear
11:55 PM 35.6 °F 32.8 °F 28.4 °F 75% 30.18 in 10.0 mi NNW 3.5 mph - N/A   Clear